FENGYUN 1C DEB

Satellite information

Favourite Embed

Satellite Type and Status

DEBRISIN ORBIT

Key statistics

Satellite FENGYUN 1C DEB at a glance.

Uptime

9665

Days in orbit

Revolutions

≈ 14.5

Per day

Orbit

SSO

Sun Synchronous Orbit

Inclination

98.9

Latest

Satellite identification and parameters

Extended collection of information and parameters for FENGYUN 1C DEB.

Object identification

Identified? True

Debris? True

Object name: FENGYUN 1C DEB

International designator: 1999-025DB

Object number (NORAD): 29809

Object ID (CCSDS): 29809

Country: PEOPLES REPUBLIC OF CHINA (PRC)

Current information (Y/N): Y

RCS size: SMALL

Orbital parameters

Period: 99.557 minutes

Inclination: 98.8525 deg

SMA: 7115.523 km

Apoapsis: 820.765 km

Periapsis: 654.012 km

RAAN: 259.231 deg

Eccentricy: 0.01171755

Argument of periapsis: 135.3005 deg

Mean anomaly: 282.6817 deg

Mean motion: 14.46413638 rev/day

Mean motion (dot): 0.00001141 rev/day2

B* drag term: 0.00030504827 1/REarth

Two-line elements (TLE)

Creation date: Oct. 25, 2025, 3:11 a.m.

Reference frame: TEME

Reference center: EARTH

Epoch: Oct. 24, 2025, 9:16 p.m. UTC

TLE line 0: 0 FENGYUN 1C DEB

TLE line 1: 1 29809U 99025DB 25297.88621023 .00001141 00000-0 30505-3 0 9991

TLE line 2: 2 29809 98.8525 259.2310 0117176 135.3005 282.6817 14.46413638987614

Live tracking on map

Real-time ground track for satellite FENGYUN 1C DEB.

In-orbit conjunctions

A list of the most updated potential collisions computed for object FENGYUN 1C DEB.

Target Orbit TCA Probability of collision Miss distance Type
COSMOS 2251 DEB LEO 2025-01-02 22:19:17 0.0001030922 196.0 (m) DEBRIS
NOAA 16 DEB SSO 2024-11-09 15:54:39 0.0004828174 309.0 (m) DEBRIS

Associated space launch

Chinese polar orbiting meteorological satellite

FENGYUN 1C DEB was lifted into orbit during the mission ‘Long March 4B | Feng Yun 1C’, on board a Long March 4B space rocket.

The launch took place on May 10, 1999, 1:33 a.m. from Launch Complex 7.

For more information about the launch, click the button.

Launch to space Long March 4B | Feng Yun 1C
Long March 4B | Feng Yun 1C

Agency: N/A

Status: Launch Successful

Launch date: May 10, 1999, 1:33 a.m. UTC

Rocket: Long March 4B

Launch pad: Launch Complex 7

Location: Taiyuan Satellite Launch Center, People's Republic of China

...

Latest news about this satellite

There are no fresh news available about this satellite. Check back as we update our databases every day.


Newsletter sign-up

Weekly statistics, charts and insights to help you stay on top of the space industry.